{"data":{"norad_id":65808,"intl_designator":"2025-218T","name":"STARLINK-34580","alt_names":[],"object_type":"PAYLOAD","status":"ACTIVE","operator":null,"country":"US","launch_date":"2025-09-26","launch_site_code":"AFWTR","launch_vehicle":null,"mission":null,"orbit_class":"UNKNOWN","rcs_meters":null,"size_class":null,"mass_kg":null,"dimensions":null,"purposes":["comms"],"wikipedia_slug":null,"has_3d_model":false,"image_url":null,"decayed_at":null,"tle_current":{"epoch":"2026-05-25T03:23:10.472352Z","epoch_age_seconds":66071,"freshness":"FRESH","line1":"1 65808U 25218T   26145.14109343  .00001545  00000+0  11109-3 0  9997","line2":"2 65808  97.4509   7.9346 0002834  84.4333 275.7218 15.05654968 36475","mean_motion":15.05654968,"eccentricity":0.0002834,"inclination_deg":97.4509,"raan_deg":7.9346,"arg_perigee_deg":84.4333,"mean_anomaly_deg":275.7218,"bstar":0.00011109,"rev_number":3647,"period_min":95.639441346432,"perigee_km":547.53262406537,"apogee_km":551.45920640173,"semimajor_km":6927.6329152335,"source":"CELESTRAK","updated_at":"2026-05-25T13:38:20.939619Z"}}}